FLTSATCOM 5

导读

FLTSATCOM 5是美国于1981年8月6日发射的舰队卫星通信系统卫星,隶属于美国海军FLTSATCOM计划,旨在为美国海军舰艇提供全球范围内的稳定卫星通信支持,满足远洋舰队指挥控制与信息传输需求。该卫星运行在地球静止轨道,是美国早期军事卫星通信体系的重要组成部分,服务海军海上作战与联合作战通信,提升了美国海军全球部署的通信能力。

基本信息
目录编号:
12635
目录名称:
FLTSATCOM 5
国际标识:
1981-073A
轨道中心:
EARTH
卫星名称:
FLTSATCOM 5
卫星全名:
--
卫星状态:
在轨 (已飞行16413 天)
发射日期:
1981-08-06 UTC
国别 :
美国 (US)
星等 :
--
轨道信息
数据来源 国际轨道数据 AOE轨道数据
星历时间 2026-07-14T03:05:17+0800
10小时前
查看轨道信息
2026-07-13T01:00:00+0800
1天前
查看轨道信息
半长轴 42638.707km 42638.476km
偏心率 0.0009692 0.0009572
轨道倾角 13.822° 13.824°
近地点辐角 178.518° 177.899°
升交点赤经 307.400° 307.413°
平近点角 195.842° 170.583°
近地点 36219.244km 36219.525km
远地点 36301.896km 36301.153km
周期 1460.380分钟 1460.368分钟
每日圈数 0.986045 0.986053
详细信息
使用方式:
暂无
2D轨道图
3D轨道图
轨道高度分析图
轨道倾角分析图
轨道综合分析图
查看轨道综合分析图